Regional Weather Roundup
Issued by NWS Goodland, KS

Home | Current Version | Previous Version | Graphics & Text | Print | Product List | Glossary On
Versions: 1 2 3 4 5 6 7 8 9 10 11 12 13 14 15 16 17 18 19 20 21 22 23 24 25 26 27 28 29 30 31 32 33 34 35 36 37 38 39 40 41 42 43 44 45 46 47 48 49 50
000
ASUS43 KGLD 241959
RWRGLD

GOODLAND FORECAST AREA HOURLY WEATHER ROUNDUP
NATIONAL WEATHER SERVICE GOODLAND KS
100 PM MST TUE JAN 24 2017

...OFFICIAL OBSERVATIONS...

CITY           SKY/WX    TMP DP  RH WIND       PRES   REMARKS
GOODLAND KS    CLOUDY    30  27  88 NW25G32   29.48S WCI  16
HILL CITY KS   CLOUDY    35  33  92 N16       29.47S FOG
IMPERIAL NEB   CLOUDY    29  24  82 N30G36    29.54S WCI  13
MCCOOK NEB     CLOUDY    33  30  88 N13       29.49F
AKRON CO       CLOUDY    25  20  81 N23G29    29.56F WCI  10
BURLINGTON CO  CLOUDY    29  25  85 N25G33    29.50S WCI  14
LIMON CO       CLOUDY    25  23  92 N21G28    29.53S WCI  11
$$

...UNOFFICIAL OBSERVATIONS...

CITY           SKY/WX    TMP DP  RH WIND       PRES   REMARKS
LENORA KS        N/A     32  32 100 NW10        N/A
NORTON KS      CLOUDY    34  28  80 NW14      29.45F FOG
SHARON SPRINGS   N/A     35  30  82 N21         N/A
TRENTON NEB      N/A     31  32 100 N10         N/A
KIT CARSON CO    N/A     30  25  83 MISG        N/A
$$




USA.gov is the U.S. government's official web portal to all federal, state and local government web resources and services.